Tracking 30918 objects as of 3-Jul-2025
HD Live streaming from Space Station
objects crossing your sky now

EKRAN 1

Track EKRAN 1 now!
EKRAN 1 is classified as:


NORAD ID: 9503
Int'l Code: 1976-107A
Perigee: 35,482.5 km
Apogee: 36,077.0 km
Inclination: 4.5 °
Period: 1,435.4 minutes
Semi major axis: 42150 km
RCS: 3.5481 m2 (large)
Launch date: October 26, 1976
Source: Commonwealth of Independent States (former USSR) (CIS)
Launch site: TYURATAM MISSILE AND SPACE COMPLEX (TTMTR)
Your satellite tracking list
THOR ABLESTAR DEB
Track 1 satellite(s)




NASA's NSSDC Master Catalog

Two Line Element Set (TLE):
1 09503U 76107A   25183.36851211 -.00000143  00000-0  00000-0 0  9993
2 09503   4.4709 275.4017 0070526 179.4198  39.1058  1.00321765195004
Source of the keplerian elements: AFSPC